Torna al catalogo

STARLINK-6243

AttivoComunicazioniVLEO
NORAD 57080·PAYLOAD·🇺🇸 United States

Lanciato Jun 22, 2023 da Vandenberg Space Force Base

Loading…

Prossimi Passaggi (prossime 24 ore)

TLE

AggiornatoSource: CelesTrak SupGP

Epoca: Sep 14, 2026, 21:32 UTC

1 57080C 23088AJ  26257.89770833  .00001520  00000+0  55078-4 0  2571
2 57080  43.0013 107.8939 0001135 269.9948  89.5204 15.27568815    14

Traccia STARLINK-6243 in tempo reale con AllMySat

Download on the App Store